Wind_Speed
44 43 42 39 38 37 37 38 40 41 40 41 42 43 42 42 40 40 40 41 42 43 43 44 44 43 42 40 39 38 37 36 36 35 35 34 33 33 33 34 34 34 35 36
42 40 38 36 36 37 37 36 37 38 39 40 40 41 42 43 41 40 40 41 42 43 44 44 44 43 42 40 40 39 39 38 37 37 36 36 35 35 36 36 37 37 38 39
38 36 36 36 35 34 35 34 35 36 38 39 40 41 42 42 42 41 40 40 41 42 44 44 44 43 42 42 41 41 40 40 39 38 38 38 38 38 38 38 39 39 40 40
37 35 35 35 34 33 32 32 33 34 36 37 38 40 39 40 42 42 40 40 41 42 43 43 44 44 43 43 42 42 42 42 41 40 40 40 39 40 40 40 40 40 41 42
35 34 33 33 32 31 30 29 30 31 34 36 38 39 39 40 41 40 40 40 41 42 43 43 43 43 43 43 43 43 43 42 42 41 41 41 41 41 41 41 41 42 43 43
30 31 30 30 30 29 28 28 28 30 32 35 36 38 38 39 38 38 40 40 41 42 43 43 42 42 42 43 43 43 43 42 42 42 41 41 41 42 42 42 43 43 44 45
28 29 28 28 29 28 28 28 28 30 33 33 33 37 36 36 38 39 40 40 41 42 43 44 43 42 42 42 42 42 42 42 42 42 42 41 42 42 43 43 44 44 45 46
27 27 27 27 26 26 26 27 27 28 30 29 31 34 33 35 38 39 40 41 41 41 42 43 44 44 43 43 43 42 42 42 42 42 41 41 42 42 43 44 45 45 45 45
25 25 25 25 25 25 26 26 26 27 27 28 31 32 33 34 36 38 38 39 39 40 41 42 43 43 43 42 42 42 42 42 42 42 42 42 43 43 44 44 44 44 44 44
23 23 24 24 24 25 25 25 26 27 27 28 29 29 30 31 34 36 36 37 38 40 40 40 42 42 42 42 42 41 41 42 42 42 43 43 43 43 43 43 43 43 43 43
21 22 22 23 24 24 25 26 27 27 28 28 28 27 27 29 30 33 35 36 38 39 39 39 39 40 40 40 41 41 41 41 41 42 42 42 42 42 42 42 41 41 41 41
18 19 21 21 21 23 24 25 27 28 28 28 28 26 25 26 27 29 31 33 35 37 38 38 38 38 39 39 40 40 40 40 40 40 40 40 40 40 39 39 39 39 39 39
17 18 18 20 20 21 22 23 25 27 28 29 28 25 24 24 24 25 27 28 31 34 36 37 37 37 37 37 38 38 38 38 38 37 37 37 37 36 37 37 37 37 37 37
17 16 17 17 18 18 19 20 22 25 26 26 25 23 22 24 23 23 24 26 28 30 33 34 35 35 36 36 36 36 36 35 35 34 34 34 34 34 34 35 35 35 35 35
15 15 16 17 18 19 19 20 21 21 21 23 22 24 23 24 25 25 25 26 26 28 29 31 32 32 33 33 33 32 32 32 32 32 32 32 32 32 32 32 32 32 33 33
15 16 16 16 17 18 19 20 20 21 21 21 23 23 22 23 24 25 25 26 27 27 27 27 28 28 28 28 28 28 28 28 28 28 29 29 29 29 29 29 29 30 30 31
16 16 17 17 17 18 17 18 20 20 20 21 21 21 23 24 23 24 24 25 25 25 25 25 25 25 25 25 25 25 25 25 26 26 27 27 27 27 27 27 27 27 28 29
16 16 17 17 17 17 16 17 18 19 19 21 20 21 22 22 22 23 23 24 24 24 23 23 23 23 23 23 23 23 23 24 24 24 25 24 23 23 24 24 24 25 26 27
16 16 16 16 16 15 15 15 16 16 17 17 17 18 19 19 20 20 21 22 22 22 22 22 22 22 22 22 22 22 22 22 22 22 21 21 21 21 21 22 22 23 24 25
16 16 16 15 15 15 14 15 14 15 15 16 15 16 16 17 18 18 20 21 21 21 21 22 22 22 21 21 21 21 21 20 20 20 20 19 20 20 20 21 22 23 23 24
16 16 16 16 15 14 15 15 14 14 14 15 15 16 16 17 18 18 19 19 20 21 21 22 22 22 21 21 20 20 20 20 19 19 19 19 19 19 20 20 21 22 23 23
17 16 16 16 16 16 15 15 15 15 15 15 15 16 16 17 17 18 18 18 19 20 21 22 22 22 21 21 21 20 19 19 19 19 19 19 19 19 20 20 21 22 23 24
18 17 17 16 16 16 17 16 16 16 16 16 16 16 16 16 17 17 18 18 19 20 22 22 23 23 22 22 21 21 20 20 20 20 20 20 20 20 21 21 22 22 23 24
19 19 18 17 17 18 18 18 18 17 17 17 17 18 18 18 18 18 19 19 20 21 22 23 24 24 23 23 23 22 22 21 21 21 21 21 21 21 22 23 23 24 24 25
21 21 20 20 19 20 20 20 20 20 20 20 20 20 20 20 20 21 21 21 21 22 22 23 24 25 25 25 24 24 23 23 23 22 22 22 23 23 23 24 25 25 26 27
23 23 23 23 22 22 22 22 22 22 22 22 22 22 22 22 22 23 23 24 24 24 25 25 25 25 25 26 26 26 25 25 25 24 24 24 25 25 25 26 26 27 28 28
Wind_Direction
187 193 198 202 205 208 213 217 220 221 222 225 227 227 227 228 227 226 227 228 229 228 228 229 232 236 239 240 241 242 244 247 250 254 257 260 263 266 270 272 275 277 279 281
185 190 193 198 202 205 208 212 216 219 221 222 223 224 224 226 228 228 228 229 230 231 230 230 232 235 238 241 242 244 245 247 250 253 257 261 264 268 271 274 276 278 280 282
184 188 192 197 200 203 208 212 215 219 222 224 224 225 224 227 229 229 229 230 231 232 232 231 233 234 237 240 243 245 247 249 252 254 258 261 265 268 271 273 274 276 278 281
182 186 190 195 199 203 208 212 217 221 224 226 227 228 226 226 229 229 230 230 232 233 234 234 234 235 237 240 243 246 248 252 255 257 260 262 265 268 270 272 274 275 277 279
178 182 187 192 197 202 207 212 217 222 226 229 230 231 225 227 228 230 230 231 233 234 235 236 236 236 238 241 243 246 249 253 256 259 261 264 266 268 270 272 273 275 276 278
175 179 184 189 195 201 206 211 216 221 227 230 231 234 227 227 228 230 231 232 233 235 236 237 238 238 239 241 244 247 249 252 256 259 261 264 266 269 270 272 274 275 276 278
177 181 184 189 195 201 207 211 217 223 228 231 232 235 229 225 226 228 230 231 233 235 236 238 238 239 239 241 243 246 249 252 255 258 261 264 266 268 270 272 274 275 276 278
178 182 186 191 199 205 211 216 223 229 234 236 237 237 230 225 225 227 229 231 232 234 236 237 238 239 240 241 243 246 249 252 254 258 261 264 266 268 269 271 273 274 276 278
183 187 190 195 201 208 214 221 226 233 238 241 241 239 235 229 227 228 229 231 232 233 235 236 237 239 240 242 243 246 248 251 255 258 261 264 266 268 269 270 272 274 276 278
190 194 198 202 208 213 218 224 229 234 240 244 245 244 239 234 232 230 230 231 230 231 233 234 236 237 239 241 243 246 249 252 256 259 261 263 265 267 268 270 272 274 276 278
198 204 206 211 216 221 225 229 232 237 242 246 248 246 239 237 234 233 232 233 231 229 231 232 234 236 239 241 244 247 250 253 256 259 261 263 265 267 269 271 273 275 277 279
201 207 213 218 221 225 230 233 237 242 246 249 250 249 243 240 237 235 235 235 233 232 232 233 235 237 240 243 246 249 252 255 257 259 261 264 266 268 270 271 273 275 277 278
206 212 216 219 225 229 233 236 240 242 245 247 247 248 246 244 240 237 237 236 236 235 235 237 239 241 244 247 249 251 254 256 258 261 263 265 267 269 271 273 274 275 277 278
213 218 221 225 230 232 234 236 240 242 246 249 249 248 243 243 242 240 240 240 239 239 239 240 243 245 247 249 251 253 255 257 259 262 264 266 268 270 272 273 274 276 278 279
219 222 225 229 233 235 237 239 242 244 248 248 246 246 242 241 240 240 241 241 241 241 241 242 244 246 248 250 252 253 255 257 260 262 264 266 268 270 272 274 275 277 279 280
226 228 231 233 237 240 241 242 244 246 248 250 248 246 246 242 240 239 240 241 241 241 242 243 245 246 247 249 250 252 255 257 259 261 263 266 268 270 273 275 278 279 280 282
230 232 235 238 242 244 243 244 246 247 247 248 248 246 244 242 239 236 236 238 239 239 240 242 243 244 245 247 248 251 253 255 257 260 263 266 268 271 273 276 279 280 282 284
235 237 240 242 245 248 247 246 247 247 247 249 247 243 243 242 238 236 235 237 238 239 240 240 241 242 243 245 247 249 251 255 258 261 264 266 268 272 275 277 280 282 284 286
237 240 243 245 246 247 247 247 248 248 247 247 244 242 242 239 237 237 236 237 237 237 237 238 239 241 242 244 246 249 252 255 258 261 263 265 268 272 276 279 282 284 286 288
237 239 242 243 243 241 242 246 248 247 244 244 241 240 240 238 238 236 235 236 237 236 237 238 239 239 241 243 246 249 252 255 257 259 262 265 269 273 277 281 283 286 288 290
239 241 242 242 241 239 241 244 245 244 242 240 239 239 239 238 237 236 237 237 238 238 238 238 238 239 242 244 247 250 253 256 257 260 263 266 270 274 278 281 284 286 289 291
241 242 243 244 243 242 243 243 243 244 242 240 239 239 239 240 240 240 240 240 240 240 239 238 239 240 243 246 248 250 253 256 258 260 263 267 271 275 279 283 286 288 290 293
241 243 244 246 246 244 243 243 243 244 244 243 242 241 241 242 242 241 241 242 243 243 242 241 242 244 245 247 249 251 253 256 259 262 264 268 271 275 280 283 286 289 291 293
241 243 244 246 247 247 246 245 245 245 246 245 245 245 244 244 243 243 244 244 245 246 246 246 246 247 248 248 250 252 254 257 260 263 265 268 271 275 279 282 285 288 290 293
242 245 245 246 247 248 249 249 248 248 248 248 247 247 247 246 245 245 245 247 247 248 249 250 251 251 251 251 251 253 255 258 261 264 266 269 272 275 278 281 284 286 289 291
246 247 247 247 248 249 250 251 251 251 251 250 250 249 249 248 248 248 247 249 250 251 251 252 253 253 253 253 254 255 257 259 261 264 267 269 272 275 277 280 283 285 287 290
Height
5639 5651 5661 5672 5681 5689 5696 5703 5710 5717 5723 5729 5735 5741 5746 5750 5757 5764 5770 5775 5780 5786 5791 5796 5800 5804 5808 5812 5815 5817 5820 5821 5823 5825 5826 5827 5829 5829 5829 5829 5829 5828 5827 5826
5641 5651 5661 5669 5676 5684 5690 5697 5704 5711 5717 5722 5728 5734 5739 5743 5751 5758 5763 5769 5774 5779 5785 5789 5794 5798 5801 5804 5807 5809 5812 5814 5816 5818 5819 5820 5821 5822 5822 5821 5821 5820 5818 5817
5642 5652 5659 5666 5674 5681 5688 5695 5702 5707 5712 5717 5722 5727 5733 5739 5745 5751 5757 5762 5767 5773 5778 5782 5787 5790 5793 5796 5799 5802 5804 5806 5808 5810 5812 5813 5814 5814 5814 5814 5813 5811 5810 5809
5641 5649 5657 5665 5672 5679 5686 5692 5698 5703 5707 5712 5718 5722 5730 5735 5739 5745 5751 5756 5761 5766 5770 5775 5779 5783 5786 5789 5791 5794 5796 5798 5800 5802 5804 5805 5805 5806 5806 5805 5804 5803 5802 5800
5641 5649 5656 5664 5671 5677 5683 5689 5694 5699 5703 5707 5711 5716 5724 5727 5733 5740 5745 5750 5754 5758 5763 5767 5771 5775 5778 5781 5784 5786 5789 5791 5792 5794 5795 5796 5797 5797 5797 5796 5795 5794 5793 5791
5643 5650 5656 5663 5669 5675 5680 5686 5690 5693 5697 5702 5706 5709 5717 5722 5729 5734 5738 5742 5746 5750 5755 5758 5763 5766 5770 5773 5775 5778 5780 5782 5784 5785 5786 5787 5787 5787 5787 5786 5785 5784 5783 5781
5643 5649 5656 5661 5666 5672 5677 5682 5686 5688 5691 5696 5700 5701 5711 5718 5721 5725 5729 5733 5738 5742 5746 5750 5754 5758 5761 5764 5767 5769 5772 5773 5775 5776 5777 5778 5778 5778 5777 5776 5775 5774 5772 5770
5645 5650 5655 5660 5665 5669 5674 5679 5683 5686 5688 5692 5693 5696 5705 5710 5713 5716 5720 5725 5729 5733 5737 5741 5745 5749 5752 5755 5758 5761 5763 5764 5766 5767 5768 5768 5768 5768 5767 5766 5765 5763 5762 5760
5646 5650 5655 5659 5663 5667 5671 5674 5678 5681 5683 5685 5687 5692 5697 5701 5705 5709 5713 5717 5721 5725 5728 5732 5736 5739 5743 5746 5749 5752 5754 5755 5757 5758 5758 5759 5759 5758 5757 5756 5755 5753 5752 5750
5646 5650 5653 5657 5660 5664 5668 5671 5673 5675 5677 5679 5682 5685 5690 5694 5698 5702 5705 5708 5711 5715 5719 5723 5727 5730 5734 5737 5740 5742 5744 5746 5747 5748 5748 5748 5748 5748 5747 5746 5745 5743 5742 5740
5645 5649 5652 5655 5658 5661 5664 5667 5668 5671 5672 5674 5676 5682 5684 5687 5691 5694 5697 5700 5703 5707 5711 5714 5718 5722 5725 5728 5731 5733 5735 5736 5737 5738 5738 5738 5738 5737 5737 5736 5735 5733 5732 5730
5644 5647 5649 5652 5655 5657 5659 5662 5664 5666 5667 5669 5671 5677 5677 5680 5683 5687 5690 5693 5696 5699 5703 5706 5710 5713 5716 5719 5721 5723 5725 5726 5727 5728 5728 5728 5728 5727 5727 5726 5725 5723 5722 5720
5642 5645 5647 5649 5653 5654 5655 5657 5659 5660 5662 5662 5665 5671 5671 5674 5676 5680 5683 5686 5688 5691 5695 5698 5702 5705 5708 5710 5712 5714 5715 5716 5717 5718 5718 5718 5718 5718 5717 5716 5715 5714 5712 5710
5639 5642 5645 5647 5648 5649 5651 5653 5654 5655 5655 5657 5660 5663 5666 5668 5670 5673 5676 5679 5681 5684 5687 5690 5693 5696 5699 5701 5703 5704 5706 5707 5708 5708 5709 5709 5709 5708 5708 5707 5706 5704 5702 5701
5636 5638 5640 5641 5643 5644 5646 5647 5648 5650 5651 5653 5655 5657 5660 5662 5664 5667 5669 5672 5674 5677 5680 5683 5685 5688 5690 5692 5694 5695 5697 5698 5699 5700 5700 5700 5700 5699 5699 5698 5696 5695 5693 5691
5632 5634 5636 5637 5638 5639 5641 5642 5643 5645 5646 5647 5649 5651 5654 5656 5658 5661 5663 5665 5667 5670 5672 5675 5678 5680 5682 5684 5686 5687 5689 5690 5691 5691 5692 5692 5691 5691 5690 5689 5687 5686 5684 5682
5629 5631 5632 5633 5634 5635 5637 5638 5639 5640 5641 5642 5643 5647 5647 5649 5652 5654 5656 5659 5661 5663 5666 5668 5671 5673 5675 5677 5678 5680 5681 5682 5683 5683 5684 5684 5683 5682 5682 5680 5679 5678 5676 5674
5625 5626 5627 5629 5630 5631 5635 5633 5634 5635 5636 5637 5638 5640 5641 5643 5646 5648 5650 5653 5655 5657 5660 5662 5664 5666 5668 5670 5672 5673 5674 5675 5675 5676 5676 5676 5675 5675 5674 5673 5671 5670 5668 5666
5621 5622 5623 5625 5625 5627 5629 5629 5629 5630 5631 5632 5633 5635 5636 5638 5640 5643 5645 5647 5649 5652 5654 5656 5658 5660 5662 5664 5665 5666 5667 5668 5668 5669 5669 5668 5668 5667 5667 5665 5664 5663 5661 5659
5617 5618 5620 5621 5621 5623 5625 5625 5625 5627 5628 5629 5629 5631 5632 5634 5636 5639 5639 5642 5644 5646 5648 5650 5652 5654 5656 5657 5659 5660 5661 5661 5662 5662 5662 5662 5661 5661 5660 5659 5657 5656 5654 5652
5613 5614 5615 5616 5617 5619 5621 5621 5622 5624 5625 5625 5625 5627 5628 5630 5632 5633 5635 5637 5639 5641 5643 5645 5647 5648 5650 5651 5653 5654 5654 5655 5655 5655 5655 5655 5655 5654 5653 5652 5651 5649 5647 5645
5609 5610 5611 5612 5613 5617 5616 5617 5618 5619 5619 5620 5621 5623 5624 5625 5627 5629 5630 5632 5634 5636 5637 5639 5641 5643 5644 5645 5647 5647 5648 5649 5649 5649 5649 5649 5648 5648 5647 5646 5644 5642 5640 5638
5604 5606 5607 5609 5611 5611 5611 5612 5613 5614 5615 5616 5617 5619 5620 5621 5622 5624 5626 5627 5629 5630 5632 5634 5635 5637 5638 5639 5640 5641 5642 5643 5643 5643 5643 5643 5642 5641 5640 5639 5637 5636 5634 5631
5599 5600 5602 5603 5604 5605 5606 5607 5608 5610 5611 5612 5613 5614 5615 5617 5618 5619 5621 5622 5624 5625 5626 5628 5629 5631 5632 5633 5634 5635 5636 5636 5636 5636 5636 5636 5635 5635 5633 5632 5631 5629 5627 5624
5594 5595 5596 5598 5599 5600 5601 5602 5603 5604 5605 5606 5608 5609 5610 5611 5613 5614 5615 5617 5618 5619 5621 5622 5623 5624 5625 5626 5627 5628 5629 5629 5629 5630 5629 5629 5628 5627 5626 5625 5623 5622 5620 5617
5587 5588 5590 5591 5593 5594 5595 5596 5597 5598 5599 5600 5602 5603 5604 5605 5607 5608 5609 5611 5612 5613 5614 5615 5616 5617 5618 5619 5620 5621 5622 5622 5622 5622 5622 5621 5621 5620 5619 5617 5616 5614 5612 5609